Starlink 34284

operational
NORAD ID: 64212 Int'l Des: 2025-117 Owner: SPXS Country: US Constellation: starlink
LEOCIRCULAR

Über Starlink 34284

Beschreibung wird geladen...

Live-Position

3D-Globus wird geladen...

Nächste Überflüge

Höhenverlauf

Altitude vs Time

uPlot chart will show altitude changes over time

Zweizeiliger Elementsatz

1 64212U 25117K 26062.18232126 .00041297 00000-0 13977-2 0 9994
2 64212 53.1575 69.5308 0001643 126.6966 233.4185 15.30224002 43534
Epoch: 3. März 2026 • Age: 18 hours

Aktueller Status

Höhe 476.4 km
Geschwindigkeit 7.63 km/s
Subsatellitenpunkt 1.71°N, 10.86°W
Startdatum 31. Mai 2025
Alter 0.7 years
Typ internet

Technische Details

Klassifizierung Payload
Masse 575.00 kg
Trockenmasse 530.00 kg
Gesamtmasse 575.00 kg
Länge 0.30 m
Durchmesser 4.10 m
Spannweite 29.00 m
Form Box + pan
Hersteller SPXS
Bus-Typ Starlink V2MO
Phasenstatus In Orbit
Besitzer/Staat SPXS/US

Große Konstellationen

Loading constellations...